Zurück zum Katalog

STARLINK-32779

AktivKommunikationVLEO
NORAD 63030·PAYLOAD·🇺🇸 United States

Gestartet Feb 18, 2025 von Cape Canaveral Space Force Station

Loading…

Nächste Überflüge (nächste 24 Stunden)

TLE

AktuellSource: CelesTrak SupGP

Epoche: Sep 15, 2026, 02:25 UTC

1 63030C 25034B   26258.10118056  .00026184  00000+0  77365-3 0  2580
2 63030  53.1572 108.6321 0001245  82.0108 203.8302 15.34376078    12

Verfolge STARLINK-32779 in Echtzeit mit AllMySat

Download on the App Store